This is the latest recevied weather packets stored in our database for station/object KD4VIF. If no packets are shown the sender has not sent any weather packets the latest 10 day(s).
| Time | Temp. | Humidity | Pressure | Rain* | Wind** | Luminosity | Snow |
|---|---|---|---|---|---|---|---|
| 1777988171 | 17.22° C | 100% | 1016.8 hPa | 0 mm | 0 m/s | - | - |
| 1777987897 | 17.22° C | 100% | 1016.8 hPa | 0 mm | 0 m/s | - | - |
| 1777987297 | 16.67° C | 100% | 1016.7 hPa | 0 mm | 0.45 m/s, 326° | - | - |
| 1777986397 | 15° C | 100% | 1016.7 hPa | 0 mm | 0 m/s | - | - |
| 1777985797 | 13.89° C | 100% | 1016.8 hPa | 0 mm | 0 m/s | - | - |
| 1777985497 | 13.89° C | 100% | 1016.9 hPa | 0 mm | 0 m/s | - | - |
| 1777984897 | 13.33° C | 100% | 1016.8 hPa | 0 mm | 0 m/s | - | - |
| 1777984633 | 12.78° C | 100% | 1016.8 hPa | 0 mm | 0 m/s | - | - |
| 1777984597 | 12.78° C | 100% | 1016.8 hPa | 0 mm | 0 m/s | - | - |
| 1777983998 | 12.78° C | 100% | 1016.7 hPa | 0 mm | 0 m/s | - | - |
| 1777983698 | 12.78° C | 100% | 1016.7 hPa | 0 mm | 0 m/s | - | - |
| 1777983397 | 12.22° C | 100% | 1016.6 hPa | 0 mm | 0 m/s | - | - |
| 1777983103 | 12.22° C | 100% | 1016.6 hPa | 0 mm | 0 m/s | - | - |
| 1777982798 | 11.67° C | 100% | 1016.5 hPa | 0 mm | 0 m/s | - | - |
| 1777982497 | 11.67° C | 100% | 1016.6 hPa | 0 mm | 0 m/s | - | - |
| 1777982234 | 11.67° C | 100% | 1016.7 hPa | 0 mm | 0 m/s | - | - |
| 1777982197 | 11.67° C | 100% | 1016.7 hPa | 0 mm | 0 m/s | - | - |
| 1777981897 | 11.67° C | 100% | 1016.7 hPa | 0 mm | 0 m/s | - | - |
| 1777981598 | 11.67° C | 100% | 1016.7 hPa | 0 mm | 0 m/s | - | - |
| 1777981297 | 11.11° C | 100% | 1016.5 hPa | 0 mm | 0 m/s | - | - |
| 1777980997 | 11.11° C | 100% | 1016.5 hPa | 0 mm | 0 m/s | - | - |
| 1777980697 | 11.11° C | 100% | 1016.5 hPa | 0 mm | 0 m/s | - | - |
| 1777980097 | 11.11° C | 100% | 1016.4 hPa | 0 mm | 0 m/s | - | - |
| 1777979197 | 10.56° C | 100% | 1016.3 hPa | 0 mm | 0 m/s | - | - |
| 1777978898 | 10.56° C | 100% | 1016.3 hPa | 0 mm | 0 m/s | - | - |
* Rain latest hour (hover to see other rain measurements)
** Current wind speed in m/s (hover to see current wind gust speed)